TimeAKST,TemperatureF,Dew PointF,Humidity,Sea Level PressureIn,VisibilityMPH,Wind Direction,Wind SpeedMPH,Gust SpeedMPH,PrecipitationIn,Events,Conditions,WindDirDegrees,DateUTC
1:54 AM,36.0,33.1,89,29.77,10.0,East,10.4,-,N/A,,Overcast,80,2013-02-04 10:54:00
2:54 AM,36.0,33.1,89,29.78,10.0,ESE,10.4,16.1,N/A,,Overcast,120,2013-02-04 11:54:00
3:54 AM,36.0,33.1,89,29.79,10.0,East,6.9,-,N/A,,Overcast,90,2013-02-04 12:54:00
4:54 AM,36.0,33.1,89,29.79,10.0,ESE,10.4,-,N/A,,Overcast,110,2013-02-04 13:54:00
5:54 AM,36.0,33.1,89,29.81,10.0,Variable,6.9,-,N/A,,Overcast,0,2013-02-04 14:54:00
6:54 AM,36.0,33.1,89,29.81,10.0,ENE,9.2,-,N/A,,Overcast,70,2013-02-04 15:54:00
7:54 AM,36.0,33.1,89,29.82,10.0,ENE,9.2,-,N/A,,Overcast,70,2013-02-04 16:54:00
8:54 AM,36.0,32.0,86,29.83,10.0,ENE,6.9,-,N/A,,Scattered Clouds,60,2013-02-04 17:54:00
9:39 AM,33.8,30.2,87,29.84,10.0,WNW,8.1,-,N/A,,Mostly Cloudy,290,2013-02-04 18:39:00
9:47 AM,33.8,30.2,87,29.84,10.0,WNW,10.4,-,N/A,,Mostly Cloudy,290,2013-02-04 18:47:00
9:54 AM,32.0,28.9,88,29.85,10.0,WNW,9.2,-,N/A,,Mostly Cloudy,290,2013-02-04 18:54:00
10:11 AM,33.8,30.2,87,29.84,10.0,WNW,9.2,-,N/A,,Scattered Clouds,290,2013-02-04 19:11:00
10:37 AM,33.8,30.2,87,29.85,10.0,WNW,10.4,-,N/A,,Mostly Cloudy,290,2013-02-04 19:37:00
10:54 AM,34.0,30.0,85,29.86,10.0,WNW,10.4,-,N/A,,Mostly Cloudy,290,2013-02-04 19:54:00
11:23 AM,33.8,30.2,87,29.85,10.0,WNW,9.2,-,N/A,,Scattered Clouds,290,2013-02-04 20:23:00
11:54 AM,35.1,30.0,82,29.86,10.0,WNW,8.1,-,N/A,,Clear,290,2013-02-04 20:54:00
12:54 PM,35.1,28.9,78,29.86,10.0,West,9.2,-,N/A,,Partly Cloudy,270,2013-02-04 21:54:00
1:54 PM,35.1,28.9,78,29.85,10.0,WNW,11.5,-,N/A,,Clear,300,2013-02-04 22:54:00
2:54 PM,34.0,28.9,82,29.85,10.0,NW,8.1,-,N/A,,Partly Cloudy,310,2013-02-04 23:54:00
3:29 PM,33.8,28.4,81,29.83,10.0,WNW,12.7,-,N/A,,Mostly Cloudy,300,2013-02-05 00:29:00
3:54 PM,32.0,28.0,85,29.83,10.0,WNW,11.5,-,N/A,,Overcast,290,2013-02-05 00:54:00
4:54 PM,33.1,28.9,85,29.82,10.0,WNW,10.4,-,N/A,,Overcast,300,2013-02-05 01:54:00
5:46 PM,32.0,28.4,87,29.80,10.0,NW,11.5,-,N/A,,Scattered Clouds,310,2013-02-05 02:46:00
5:54 PM,32.0,28.0,85,29.81,10.0,WNW,11.5,-,N/A,,Partly Cloudy,300,2013-02-05 02:54:00
6:54 PM,30.9,27.0,85,29.80,10.0,NW,13.8,20.7,N/A,,Mostly Cloudy,310,2013-02-05 03:54:00
7:54 PM,30.0,27.0,88,29.77,10.0,WNW,13.8,-,N/A,,Clear,300,2013-02-05 04:54:00
8:54 PM,28.9,25.0,85,29.75,10.0,WNW,11.5,-,N/A,,Clear,300,2013-02-05 05:54:00
9:54 PM,30.0,25.0,82,29.73,10.0,WNW,12.7,-,N/A,,Clear,300,2013-02-05 06:54:00
10:54 PM,28.9,25.0,85,29.71,10.0,WNW,15.0,24.2,N/A,,Clear,300,2013-02-05 07:54:00
11:54 PM,27.0,21.9,81,29.70,10.0,WNW,16.1,-,N/A,,Clear,300,2013-02-05 08:54:00